Location: *
(45.8589°N, 4.7139°E)
Time: 22:23:54
(UTC+00:00)

Abrixas rocket - Pass Details

Date: 09 April 2020
Orbit: 344 x 351 km, 48.4° (Epoch: 05 June)

Event Time Altitude Azimuth Distance (km) Brightness Sun altitude
Rises 19:59:31 0° 288° (WNW) 2,167 7.4 -16.8°
Reaches altitude 10° 20:01:34 10° 284° (WNW) 1,324 5.9 -17.1°
Maximum altitude 20:04:28 54° 206° (SSW) 439 2.2 -17.5°
Enters shadow 20:04:38 53° 189° (S) 445 2.1 -17.5°
